Regional Weather Roundup
Issued by NWS

Home | Current Version | Previous Version | Graphics & Text | Print | Product List | Glossary On
Versions: 1 2 3 4 5 6 7 8 9 10 11 12 13 14 15 16 17 18 19 20 21 22 23 24 25 26 27 28 29 30 31 32 33 34 35 36 37 38 39 40
000
ASUS45 KBOU 212007
RWRCO

WEATHER ROUNDUP FOR COLORADO
NATIONAL WEATHER SERVICE DENVER/BOULDER CO
200 PM MDT TUE OCT 21 2014

NOTE: "FAIR" INDICATES FEW OR NO CLOUDS BELOW 12000 FEET WITH NO
SIGNIFICANT WEATHER AND/OR OBSTRUCTIONS TO VISIBILITY.

COZ001>005-013-030-031-212100-
...NORTHWEST COLORADO...

CITY           SKY/WX    TMP DP  RH WIND       PRES   REMARKS
CRAIG          CLOUDY    66  40  38 SW15      30.01F
HAYDEN         CLOUDY    63  36  36 SW12G17   30.04F
MEEKER         CLOUDY    63  39  41 S22G28    30.03F
MOUNT WERNER   NOT AVBL
STEAMBOAT SPGS CLOUDY    57  42  58 E8        30.06F
WALDEN         PTSUNNY   54  34  47 S13G25    30.11F
$$

COZ006>008-011-212100-
...WEST CENTRAL VALLEYS...

CITY           SKY/WX    TMP DP  RH WIND       PRES   REMARKS
GRAND JUNCTION CLOUDY    70  43  37 S8        29.97F
MONTROSE       CLOUDY    64  40  41 CALM      30.07F
EAGLE          PTSUNNY   55  45  67 CALM      30.10F
RIFLE          CLOUDY    62  44  51 CALM      30.03F
DELTA          CLOUDY    69  41  36 N6        30.03F
NUCLA          CLOUDY    64  37  36 SW10      30.11F
$$

COZ017>023-064>068-212100-
...SOUTHWEST COLORADO...

CITY           SKY/WX    TMP DP  RH WIND       PRES   REMARKS
DURANGO        CLOUDY    59  43  55 CALM      30.14F
CORTEZ         PTSUNNY   63  43  48 W5        30.10F
PAGOSA SPRINGS CLOUDY    56  40  53 CALM      30.19F
TELLURIDE      DRIZZLE   45  42  88 CALM      30.26F
WOLF CREEK PAS CLOUDY    34  34 100 SW9         N/A  WCI  26
$$

COZ009-010-012-014-032>034-037-058>063-212100-
...CENTRAL COLORADO...

CITY           SKY/WX    TMP DP  RH WIND       PRES   REMARKS
ASPEN          PTSUNNY   57  38  48 NW15G22   30.11F
BUENA VISTA    CLOUDY    57  36  45 CALM      30.14F
COPPER MTN     CLOUDY    46  27  46 S10G18    30.33F
BERTHOUD PASS  CLOUDY    36  34  93 MISG      30.36F
COTTONWOOD PAS HVY RAIN  50  37  62 CALM      30.25F
GUNNISON       PTSUNNY   59  34  38 S3        30.16F
KREMMLING      CLOUDY    55  36  47 NW17G23     N/A
LEADVILLE      CLOUDY    50  27  40 MISG      30.21F
MONARCH PASS   CLOUDY    39  30  70 SW15      30.45F
SALIDA         CLOUDY    64  36  36 SW8       30.18F
SUNLIGHT       DRIZZLE   46  41  81 CALM      30.28F
WILKERSON PASS NOT AVBL
$$

COZ069>075-212100-
...SAN LUIS VALLEY/SANGRE DE CRISTO MOUNTAINS...

CITY           SKY/WX    TMP DP  RH WIND       PRES   REMARKS
ALAMOSA        CLOUDY    59  36  42 VRB3      30.15F
LA VETA PASS   MOSUNNY   52  32  46 S10       30.27F
SAGUACHE       CLOUDY    57  36  44 CALM      30.17F
$$

COZ035-036-038>040-212100-
...NORTHERN COLORADO FRONT RANGE...

CITY           SKY/WX    TMP DP  RH WIND       PRES   REMARKS
DENVER INTL AP MOSUNNY   77  33  20 VRB3      29.94F
DMNS CITY PARK   N/A     79  31  17 SW5       29.93F
AURORA         MOSUNNY   73  32  22 W5        29.96F
FRONT RANGE AP MOSUNNY   77  36  22 SW5       29.96F
ERIE MUNI ARPT MOSUNNY   74  32  21 CALM      29.93F
BOULDER MUN AP MOSUNNY   72  37  28 CALM      29.94F
CENTENNIAL     PTSUNNY   73  31  21 VRB3      29.97F
BROOMFIELD     PTSUNNY   73  36  25 N5        29.97F
FORT COLLINS   MOSUNNY   77  39  25 E12       29.93F
LONGMONT       MOSUNNY   79  36  21 SE6       29.94F
$$

COZ041-046-047-076>085-087-088-212100-
...PIKES PEAK/PALMER DIVIDE AND SOUTHERN FOOTHILLS...

CITY           SKY/WX    TMP DP  RH WIND       PRES   REMARKS
COLO. SPRINGS  MOSUNNY   70  37  29 S17       30.03F
A. F. ACADEMY  MOSUNNY   68  38  33 S9        30.04F
ELLICOTT       MOSUNNY   70  36  28 S16G22    30.03F
FALCON         MOSUNNY   68  35  29 S13G20    30.08F
FORT CARSON    MOSUNNY   71  38  29 SE16G23   30.01F
LIMON          SUNNY     72  36  26 S17G25    30.00F
MONUMENT HILL  MOSUNNY   68  32  26 S12       30.05F
TRINIDAD       PTSUNNY   68  41  37 S16       30.03F
$$

COZ042>045-048>051-090-091-212100-
...NORTHEAST COLORADO...

CITY           SKY/WX    TMP DP  RH WIND       PRES   REMARKS
GREELEY ARPT   MOSUNNY   75  39  27 SE8       29.93F
AKRON          SUNNY     79  35  20 S15       29.92F
BURLINGTON     SUNNY     77  45  32 S22G29    29.97F
WRAY           SUNNY     82  40  22 S20G28    29.92F
STERLING       SUNNY     81  45  28 SW6       29.89F
HOLYOKE        SUNNY     84  37  18 S16G26    29.90F
FORT MORGAN    SUNNY     76  37  23 CALM      29.93F
$$

COZ086-089-092>099-212100-
...SOUTHEAST COLORADO...

CITY           SKY/WX    TMP DP  RH WIND       PRES   REMARKS
PUEBLO         SUNNY     75  40  28 SE9       29.95F
LA JUNTA       SUNNY     80  37  21 S16G22    29.95F
LAMAR          SUNNY     81  41  24 S17G30    29.94F
SPRINGFIELD      N/A     74  43  32 SW18G31   30.02
$$



USA.gov is the U.S. government's official web portal to all federal, state and local government web resources and services.